Tracking 19625 objects as of 26-May-2019
HD Live streaming from Space Station
objects crossing your sky now
Watch Starlink satellites crossing your sky!

GALILEO-FM4

Track GALILEO-FM4 now!
GALILEO-FM4 is classified as:


NORAD ID: 38858
Int'l Code: 2012-055B
Perigee: 23,217.3 km
Apogee: 23,241.4 km
Inclination: 54.9 °
Period: 844.7 minutes
Semi major axis: 29600 km
RCS: 13.2202 m2 (large)
Launch date: October 12, 2012
Source: European Space Agency (ESA)
Launch site: FRENCH GUIANA (FRGUI)

GALILEO-FM4 is one of the first four Galileo satellites which are part of system's in-orbit validation, or IOV, phase.
aabbcc
Your satellite tracking list
Your tracking list is empty




NASA's NSSDC Master Catalog

Two Line Element Set (TLE):
1 38858U 12055B   19142.09072496  .00000044  00000-0  00000+0 0  9996
2 38858  54.9299 172.5878 0004084 269.4032  90.6110  1.70473843 41078
Source of the keplerian elements: AFSPC